Quillayute, WA
on Monday, January 7, 2013

Monday
Previous Day Next Day
Daily Summary
 ActualAverageRecord
Temperature
Mean Temperature °F 41°F  
Max Temperature 49°F 46°F 60°F (1986)
Min Temperature 38°F 36°F 13°F (1974)
Degree Days
Heating Degree Days 21 24  
Month to date heating degree days 168  
Since 1 July heating degree days 2646  
Cooling Degree Days 0 0  
Month to date cooling degree days 0  
Year to date cooling degree days 0  
Moisture
Dew Point 44°F   
Average Humidity 97    
Maximum Humidity 100    
Minimum Humidity 86    
Precipitation
Precipitation 1.26 in 0.48 in 2.88 in (2009)
Month to date precipitation 3.29  
Year to date precipitation 3.29  
Wind
Wind Speed 7 mph   
Max Wind Speed 21 mph   
Max Gust Speed 26 mph   
Visibility 2 miles   
Events Fog , Rain   

Key: T is trace of precipitation, MM is missing value
Source: NWS Daily Summary
Time(PST)TemperatureDew PointHumidity Pressure Visibility Wind DirectionWind SpeedGust SpeedPrecipitationEvents Conditions
12:24 AM 44.6°F 44.6°F 100% 29.86 in 2.0 miles SSE 11.5 mph 21.9 mph 0.01 in Rain Light Rain
12:35 AM 44.6°F 44.6°F 100% 29.86 in 1.8 miles SSE 6.9 mph - 0.02 in Rain Light Rain
12:42 AM 44.6°F 44.6°F 100% 29.86 in 1.8 miles SSE 8.1 mph - 0.02 in Rain Light Rain
12:53 AM 45.0°F 44.1°F 97% 29.86 in 2.5 miles Variable 3.5 mph - 0.03 in Rain Light Rain
1:18 AM 44.6°F 44.6°F 100% 29.85 in 1.5 miles SSE 5.8 mph - 0.00 in Rain Light Rain
1:25 AM 44.6°F 44.6°F 100% 29.84 in 1.2 miles Variable 5.8 mph - N/A Rain Light Rain
1:35 AM 44.6°F 44.6°F 100% 29.84 in 1.8 miles Variable 6.9 mph - 0.03 in Rain Light Rain
1:43 AM 44.6°F 44.6°F 100% 29.84 in 2.0 miles SSE 6.9 mph - 0.04 in Rain Light Rain
1:50 AM 44.6°F 44.6°F 100% 29.84 in 1.5 miles SSE 4.6 mph - 0.05 in Rain Light Rain
1:53 AM 45.0°F 44.1°F 97% 29.85 in 1.5 miles SSE 6.9 mph - 0.05 in Rain Light Rain
2:35 AM 44.6°F 44.6°F 100% 29.84 in 1.2 miles SE 5.8 mph - 0.09 in Rain Rain
2:42 AM 44.6°F 44.6°F 100% 29.84 in 1.5 miles SSE 5.8 mph - N/A Rain Light Rain
2:53 AM 45.0°F 44.1°F 97% 29.86 in 1.8 miles Calm Calm - 0.12 in Rain Rain
3:43 AM 46.4°F 46.4°F 100% 29.82 in 1.5 miles South 8.1 mph - 0.13 in Rain Rain
3:50 AM 46.4°F 46.4°F 100% 29.82 in 1.5 miles SSW 6.9 mph - 0.15 in Rain Rain
3:53 AM 46.0°F 46.0°F 100% 29.82 in 1.5 miles Variable 4.6 mph - 0.16 in Rain Rain
4:24 AM 46.4°F 46.4°F 100% 29.80 in 1.2 miles South 8.1 mph - N/A Rain Rain
4:43 AM 46.4°F 46.4°F 100% 29.80 in 1.2 miles Variable 5.8 mph - 0.14 in Rain Rain
4:53 AM 46.9°F 46.9°F 100% 29.81 in 1.5 miles Variable 6.9 mph - 0.17 in Rain Rain
4:57 AM 46.4°F 46.4°F 100% 29.80 in 1.2 miles WSW 6.9 mph - 0.01 in Rain Rain
5:17 AM 46.4°F 46.4°F 100% 29.80 in 0.8 miles South 5.8 mph - 0.09 in Rain Rain
5:36 AM 46.4°F 46.4°F 100% 29.80 in 1.0 miles South 8.1 mph - 0.17 in Rain Rain
5:53 AM 46.9°F 46.9°F 100% 29.81 in 1.0 miles South 9.2 mph - 0.20 in Rain Light Rain
6:06 AM 48.2°F 46.4°F 93% 29.80 in 0.8 miles SSW 6.9 mph - 0.02 in Rain Light Rain
6:53 AM 48.0°F 48.0°F 100% 29.81 in 1.0 miles SW 11.5 mph - 0.14 in Rain Light Rain
7:23 AM 48.2°F 48.2°F 100% 29.81 in 0.8 miles WSW 11.5 mph - 0.05 in Rain Light Rain
7:53 AM 48.9°F 48.0°F 97% 29.83 in 0.8 miles WSW 13.8 mph 21.9 mph 0.11 in Rain Light Rain
8:08 AM 48.2°F 48.2°F 100% 29.83 in 1.0 miles WSW 15.0 mph - 0.03 in Rain Light Rain
8:34 AM 48.2°F 48.2°F 100% 29.85 in 0.5 miles WSW 12.7 mph 20.7 mph 0.07 in Fog , Rain Light Rain
8:53 AM 48.9°F 48.0°F 97% 29.86 in 0.5 miles WSW 15.0 mph - 0.10 in Fog , Rain Light Rain
9:53 AM 48.0°F 48.0°F 100% 29.90 in 0.5 miles West 11.5 mph - 0.05 in Fog , Rain Light Rain
10:30 AM 48.2°F 46.4°F 93% 29.91 in 0.2 miles West 19.6 mph 26.5 mph 0.02 in Fog , Rain Light Rain
10:42 AM 48.2°F 46.4°F 93% 29.91 in 0.5 miles West 16.1 mph 24.2 mph 0.03 in Fog , Rain Light Rain
10:53 AM 48.2°F 46.4°F 93% 29.92 in 0.5 miles West 18.4 mph 23.0 mph N/A Fog , Rain Light Rain
11:05 AM 48.2°F 46.4°F 93% 29.94 in 0.2 miles West 17.3 mph 26.5 mph 0.01 in Fog , Rain Light Rain
11:19 AM 46.4°F 46.4°F 100% 29.94 in 0.5 miles West 17.3 mph 26.5 mph 0.02 in Fog , Rain Light Rain
11:53 AM 46.9°F 46.9°F 100% 29.97 in 0.5 miles West 15.0 mph 23.0 mph 0.03 in Fog Fog
12:29 PM 46.4°F 46.4°F 100% 29.98 in 1.5 miles West 13.8 mph - 0.01 in Rain Light Rain
12:34 PM 46.4°F 46.4°F 100% 29.98 in 0.8 miles West 15.0 mph 23.0 mph 0.02 in Rain Light Rain
12:53 PM 46.9°F 46.9°F 100% 30.00 in 0.5 miles West 11.5 mph - 0.04 in Fog , Rain Light Rain
1:21 PM 46.4°F 46.4°F 100% 30.00 in 1.5 miles West 11.5 mph 19.6 mph 0.01 in   Overcast
1:30 PM 46.4°F 46.4°F 100% 30.00 in 1.0 miles West 8.1 mph 17.3 mph 0.02 in Rain Light Rain
1:37 PM 46.4°F 46.4°F 100% 30.00 in 1.5 miles West 13.8 mph 21.9 mph 0.02 in   Overcast
1:53 PM 48.0°F 46.0°F 93% 30.01 in 2.0 miles West 8.1 mph - 0.02 in   Overcast
2:00 PM 48.2°F 46.4°F 93% 30.01 in 2.0 miles West 9.2 mph - N/A   Overcast
2:53 PM 46.4°F 44.6°F 93% 30.05 in 1.5 miles West 10.4 mph - N/A Rain Light Rain
3:08 PM 46.4°F 44.6°F 93% 30.06 in 2.0 miles West 6.9 mph - 0.00 in   Overcast
3:46 PM 46.4°F 44.6°F 93% 30.08 in 2.5 miles West 5.8 mph - 0.00 in   Overcast
3:53 PM 46.9°F 44.1°F 90% 30.09 in 2.5 miles WSW 5.8 mph - 0.00 in   Overcast
4:25 PM 46.4°F 44.6°F 93% 30.09 in 2.5 miles WSW 6.9 mph - 0.00 in   Mostly Cloudy
4:53 PM 46.0°F 43.0°F 89% 30.10 in 4.0 miles SW 4.6 mph - 0.00 in   Overcast
5:53 PM 46.0°F 42.1°F 86% 30.11 in 4.0 miles WSW 5.8 mph - N/A   Overcast
6:53 PM 45.0°F 42.1°F 90% 30.13 in 4.0 miles West 5.8 mph - N/A   Mostly Cloudy
7:53 PM 45.0°F 42.1°F 90% 30.13 in 4.0 miles West 4.6 mph - N/A   Overcast
8:53 PM 43.0°F 41.0°F 93% 30.14 in 4.0 miles West 3.5 mph - N/A   Overcast
9:09 PM 42.8°F 41.0°F 93% 30.13 in 2.5 miles Calm Calm - N/A   Overcast
9:19 PM 42.8°F 41.0°F 93% 30.14 in 3.0 miles Calm Calm - N/A   Overcast
9:35 PM 39.2°F 39.2°F 100% 30.13 in 1.8 miles Calm Calm - N/A   Mostly Cloudy
9:45 PM 39.2°F 39.2°F 100% 30.13 in 3.0 miles ESE 4.6 mph - N/A   Mostly Cloudy
9:53 PM 41.0°F 39.9°F 96% 30.14 in 3.0 miles East 3.5 mph - N/A   Scattered Clouds
10:05 PM 39.2°F 39.2°F 100% 30.14 in 2.5 miles Calm Calm - N/A   Mostly Cloudy
10:18 PM 37.4°F 37.4°F 100% 30.14 in 1.2 miles Calm Calm - N/A   Mostly Cloudy
10:30 PM 37.4°F 37.4°F 100% 30.15 in 0.8 miles Calm Calm - N/A   Mostly Cloudy
10:38 PM 39.2°F 39.2°F 100% 30.14 in 1.5 miles Calm Calm - N/A   Mostly Cloudy
10:53 PM 39.0°F 39.0°F 100% 30.15 in 2.5 miles Calm Calm - N/A   Overcast
11:09 PM 41.0°F 39.2°F 93% 30.15 in 3.0 miles Calm Calm - N/A   Overcast
11:17 PM 39.2°F 39.2°F 100% 30.14 in 1.8 miles Calm Calm - N/A   Overcast
11:25 PM 39.2°F 39.2°F 100% 30.15 in 1.5 miles Calm Calm - N/A   Overcast
11:38 PM 39.2°F 39.2°F 100% 30.14 in 3.0 miles Calm Calm - N/A   Overcast
11:53 PM 39.9°F 39.0°F 97% 30.15 in 3.0 miles Calm Calm - N/A   Overcast
Moon Phase
Jan. 07 Jan. 11 Jan. 18 Jan. 26 Feb. 03
Sunrise:08:06 AM (PST) Moon Rise:03:32 AM (PST)1/7
Sunset:04:43 PM (PST) Moon Set:01:02 PM (PST)1/7

Copyright © 2014 The Weather Underground, Inc.